Location: Norton
(51.3000°N, 0.8167°E)
Time: 02:57:07
(UTC+00:00)

Resurs 01 Rocket - Pass Details

Date: 03 March 2021
Orbit: 635 x 643 km, 98.0° (Epoch: 13 April)

Event Time Altitude Azimuth Distance (km) Brightness Sun altitude
Exits shadow 20:50:14 45° 303° (WNW) 869 2.6 -29.4°
Drops below altitude 10° 20:53:40 10° 338° (NNW) 2,036 4.8 -29.9°
Sets 20:55:56 0° 343° (NNW) 2,951 5.7 -30.2°
